[Date Prev][Date Next][Thread Prev][Thread Next] - [Date Index][Thread Index][Author Index]
2 Line ISS Keps 10-27
- Subject: [sarex] 2 Line ISS Keps 10-27
- From: "Dave Larsen PhD" <doc@xxxxxxxxxxx>
- Date: Wed, 27 Oct 2004 03:43:15 -0700
ISS
1 25544U 98067A 04301.33194409 .00032902 00000-0 27436-3 0 72
2 25544 51.6369 11.4909 0008575 283.4151 204.5497 15.69719353339077
----
Via the sarex mailing list at AMSAT.ORG courtesy of AMSAT-NA.
To unsubscribe, send "unsubscribe sarex" to Majordomo@amsat.org
AMSAT Home